Location: *
(46.1866°S, 178.5290°W)
Time: 20:32:11
(UTC+00:00)

PAYLOAD B - Pass Details

Date: 19 May 2021
Orbit: 849 x 871 km, 99.1° (Epoch: 12 June)

Event Time Altitude Azimuth Distance (km) Brightness Sun altitude
Exits shadow 06:38:14 - 167° (SSE) 3,243 7.1 -22.3°
Reaches altitude 10° 06:40:01 10° 167° (SSE) 2,544 6.5 -22.6°
Maximum altitude 06:45:41 81° 252° (WSW) 889 4.3 -23.6°
Drops below altitude 10° 06:51:15 10° 339° (NNW) 2,498 6.9 -24.5°
Sets 06:53:36 0° 340° (NNW) 3,424 7.7 -24.9°
